www.pogodaiklimat.ru

Погода и климат >> Архив погоды >> Южная Африка >> Clanwilliam


ПОГОДА в Clanwilliam

  • Прогноз погоды в Clanwilliam
  • Монитор погоды в Clanwilliam
  • Климат города

АРХИВ ПОГОДЫ в Clanwilliam

Время (UTC), дата Ветер
(напр.,м/с)
 
Видим.   Явления Облачность Т
(С)
Тd
(С)
f
(%)
Тe
(С)
Тes
(С)
Комфортность P
(гПа)
Po
(гПа)
Тmin
(С)
Tmax
(С)
R
(мм)
R24
(мм)
S
(см)
15 14.10 З 4 н/о н/о +20.6 +9.0 47 +22 +22 комфорт 1015.0 1003.3 +20.5 +22.3
18 14.10 З 4 н/о н/о +16.1 +9.1 63 +16 +16 1017.6 1005.7 +16.1 +22.3
21 14.10 СЗ 2 н/о н/о +13.0 +9.2 78 +12 +12 1018.9 1006.9 +13.0 +22.3
00 15.10 штиль 0 н/о н/о +14.1 +10.7 80 +14 +14 1019.0 1007.0 +13.0 +22.3
03 15.10 Ю 1 н/о н/о +14.2 +11.0 81 +15 +15 1019.4 1007.4 +13.0 +22.3
06 15.10 СЗ 2 н/о н/о +15.1 +10.5 74 +15 +15 1021.4 1009.4 +13.0
09 15.10 ЮВ 1 н/о н/о +20.1 +7.6 44 +22 +22 комфорт 1020.5 1008.7 +13.0 +20.3
12 15.10 З 1 н/о н/о +24.0 +8.2 36 +24 +24 комфорт 1018.3 1006.7 +13.0 +24.1
15 15.10 ЮЗ 5 н/о н/о +21.7 +10.0 47 +23 +23 комфорт 1017.7 1006.0 +21.7 +24.5
18 15.10 Ю 4 н/о н/о +19.5 +8.9 50 +21 +21 комфорт 1018.9 1007.1 +19.5 +24.5
21 15.10 ЮВ 2 н/о н/о +16.4 +9.8 65 +17 +17 1020.9 1009.0 +16.4 +24.5
00 16.10 ЮВ 1 н/о н/о +15.3 +9.4 68 +16 +16 1020.3 1008.3 +15.2 +24.5
03 16.10 ЮЗ 1 н/о н/о +12.0 +8.5 79 +12 +12 1020.2 1008.1 +11.9 +24.5
06 16.10 штиль 0 н/о н/о +14.0 +9.6 75 +14 +14 1020.5 1008.5 +11.3
09 16.10 штиль 0 н/о н/о +21.9 +8.2 41 +23 +23 комфорт 1020.2 1008.5 +11.3 +21.9
12 16.10 ЮВ 2 н/о н/о +25.8 +5.6 27 +25 +25 комфорт 1017.3 1005.8 +11.3 +25.8
15 16.10 ЮЗ 5 н/о н/о +23.0 +5.6 32 +23 +23 комфорт 1017.9 1006.3 +23.0 +26.7
18 16.10 ЮЗ 3 н/о н/о +19.4 +5.2 39 +20 +20 1019.2 1007.4 +19.4 +26.7
21 16.10 Ю 5 н/о н/о +16.9 +7.0 52 +16 +16 1020.0 1008.1 +16.9 +26.7
00 17.10 ЮЗ 1 н/о н/о +15.2 +7.0 58 +16 +16 1019.2 1007.3 +15.1 +26.7
03 17.10 штиль 0 н/о н/о +11.0 +6.1 72 +11 +11 1019.6 1007.5 +11.0 +26.7
06 17.10 С 2 н/о н/о +13.5 +6.6 63 +13 +13 1020.8 1008.8 +9.7
09 17.10 З 1 н/о н/о +23.0 +5.6 32 +23 +23 комфорт 1018.2 1006.6 +9.7 +23.0
12 17.10 ЮВ 2 н/о н/о +27.9 +4.5 22 +26 +26 жарко 1015.2 1003.8 +9.7 +27.9
15 17.10 ЮВ 4 н/о н/о +27.8 +5.6 24 +27 +27 жарко 1013.1 1001.7 +27.6 +28.5
18 17.10 ЮЗ 1 н/о н/о +24.0 +5.5 30 +24 +24 комфорт 1014.0 1002.5 +24.0 +28.5
21 17.10 штиль 0 н/о н/о +18.1 +7.0 48 +18 +18 1015.5 1003.7 +18.1 +28.5
00 18.10 СЗ 1 н/о н/о +14.5 +7.1 61 +15 +15 1014.8 1002.9 +14.5 +28.5
03 18.10 штиль 0 н/о н/о +12.8 +6.8 67 +12 +12 1014.2 1002.2 +12.8 +28.5
06 18.10 СВ 1 н/о н/о +15.0 +7.8 62 +16 +16 1015.4 1003.5 +11.6
09 18.10 В 2 н/о н/о +25.1 +8.3 34 +25 +25 комфорт 1013.5 1002.0 +11.6 +25.4
12 18.10 ЮЗ 3 н/о н/о +29.6 +4.6 20 +28 +28 жарко 1011.5 1000.2 +11.6 +29.6
15 18.10 ЮЗ 5 н/о н/о +28.7 +6.4 24 +28 +28 жарко 1010.9 999.6 +28.6 +30.2
18 18.10 ЮВ 2 н/о н/о +22.2 +5.7 34 +23 +23 комфорт 1013.7 1002.1 +22.2 +30.2
21 18.10 Ю 5 н/о н/о +19.0 +7.5 47 +19 +19 1015.0 1003.3 +19.0 +30.2
00 19.10 ЮВ 3 н/о н/о +16.4 +9.8 65 +16 +16 1016.0 1004.1 +16.4 +30.2
03 19.10 ЮВ 3 н/о н/о +15.9 +10.2 69 +16 +16 1017.1 1005.2 +15.8 +30.2
06 19.10 ЮВ 4 н/о н/о +18.0 +10.4 61 +18 +18 1018.7 1006.9 +15.5
09 19.10 ЮВ 5 н/о н/о +22.1 +9.7 45 +24 +24 комфорт 1019.2 1007.5 +15.5 +22.1
12 19.10 ЮВ 6 н/о н/о +25.3 +8.1 33 +25 +25 комфорт 1018.0 1006.5 +15.5 +25.5
15 19.10 Ю 6 н/о н/о +24.4 +6.4 31 +24 +24 комфорт 1017.7 1006.1 +24.4 +26.0
18 19.10 ЮВ 3 н/о н/о +21.9 +4.6 32 +22 +22 комфорт 1019.7 1008.0 +21.9 +26.0
21 19.10 ЮВ 2 н/о н/о +18.8 +1.9 32 +20 +20 1021.2 1009.4 +18.1 +26.0
00 20.10 ЮВ 2 н/о н/о +18.3 -3.6 22 +19 +19 1021.0 1009.2 +18.1 +26.0
03 20.10 С 2 н/о н/о +13.0 -3.2 32 +13 +13 1021.5 1009.4 +11.2 +26.0
06 20.10 ЮВ 5 н/о н/о +22.4 -3.6 17 +21 +21 комфорт 1022.6 1010.9 +10.7
09 20.10 ЮВ 5 н/о н/о +28.6 -10.3 7 +25 +25 комфорт 1021.8 1010.4 +10.7 +28.6
12 20.10 В 5 н/о н/о +31.2 -6.6 8 +27 +27 жарко 1019.6 1008.3 +10.7 +31.4
15 20.10 ЮВ 5 н/о н/о +30.8 -5.3 9 +27 +27 жарко 1017.9 1006.6 +30.8 +32.0
18 20.10 ЮВ 5 н/о н/о +27.9 -3.8 12 +25 +25 комфорт 1018.5 1007.1 +27.9 +32.0
21 20.10 ЮВ 3 н/о н/о +25.6 -3.6 14 +23 +23 комфорт 1020.4 1008.9 +25.6 +32.0
00 21.10 Ю 4 н/о н/о +23.3 -4.5 15 +21 +21 комфорт 1020.0 1008.4 +22.7 +32.0
03 21.10 ЮЗ 4 н/о н/о +22.4 -9.3 11 +20 +20 1019.6 1007.9 +22.0 +32.0
06 21.10 Ю 2 н/о н/о +25.2 -11.2 8 +22 +22 комфорт 1019.8 1008.3 +19.8
09 21.10 ЮВ 3 н/о н/о +29.6 -9.5 7 +26 +26 жарко 1018.7 1007.3 +19.8 +30.3

 

Местоположение метеостанции Clanwilliam (Южная Африка): широта -32.18 долгота 18.89 высота над уровнем моря 100 м.

В архиве по умолчанию представлена погода в Clanwilliam за последнюю неделю. Архивные данные за месяц целиком и за предыдущие месяцы, начиная с января 2011 года, Вы можете получить, выбрав интересующий диапазон дат из раскрывающегося списка и нажав кнопку "Ввод!".


*Определитесь, кто Вы:
робот инопланетянин человек

Внимание! Время в таблицах - всемирное. Для получения местного времени необходимо прибавить поправку, которая в Clanwilliam равна 2 ч.

Смотрите также архив погоды в соседних городах и на ближайших метеорологических станциях:

Погода в Lamberts Bay (Южная Африка) (55 км)
Погода в Vredendal (Южная Африка) (69 км)
Погода в Nieuwoudtville (Южная Африка) (95 км)
Погода в Excelsior Ceres (Южная Африка) (100 км)
Погода в Langebaanweg (Южная Африка) (110 км)
Погода в Calvinia (Южная Африка) (115 км)
Погода в Cape Columbine (Южная Африка) (121 км)
Погода в Langebaan (Южная Африка) (129 км)
Погода в Geelbek (Южная Африка) (134 км)
Погода в Malmesbury (Южная Африка) (143 км)

Пояснения к столбцам:

Ветер - указаны скорость ветра в м/с - средняя за 10 мин, порывы в срок и между сроками (в фигурных скобках) и направление, откуда дует ветер: С - северный, СВ - северо-восточный, В - восточный, ЮВ - юго-восточный, Ю - южный, ЮЗ - юго-западный, З - западный, СЗ - северо-западный.
Видимость - горизонтальная дальность видимости в метрах или километрах. При видимости от 1 до 10 км при отсутствии осадков обычно наблюдается дымка, при ухудшении видимости до 1 км и менее - туман. В сухую погоду видимость может ухудшаться дымом, пылью или мглою.
Явления - указаны атмосферные явления, наблюдавшиеся в срок или в последний час перед сроком; фигурными скобками обозначены явления, наблюдавшиеся между сроками (за 1-3 часа до срока); квадратными скобками обозначены град или гололедные отложения с указанием их диаметра в мм.
Облачность - указаны через наклонную черту общая и нижняя облачность в баллах и высота нижней границы облаков в метрах; квадратными скобками обозначены формы облаков: Ci - перистые, Cs - перисто-слоистые, Cc - перисто-кучевые, Ac - высококучевые, As - высокослоистые, Sc - слоисто-кучевые, Ns - слоисто-дождевые, Cu - кучевые, Cb - кучево-дождевые. Подробнее классификацию облаков см. в Атласе облаков (PDF).
T - Температура воздуха - температура, измеренная на высоте 2 м над землей.
Td - Температура точки росы - температура, при понижении до которой содержащийся в воздухе водяной пар достигнет насыщения.
f - Относительная влажность воздуха - влажноcть воздуха, измеренная на высоте 2 м над землей.
Te - Эффективная температура - температура, которую ощущает одетый по сезону человек в тени. Характеристика душности погоды. При расчете учитывается влияние влажности воздуха и скорости ветра на теплоощущения человека.
Tes - Эффективная температура на солнце - температура, которую ощущает человек, с поправкой на солнечный нагрев. Характеристика знойности погоды. Зависит от высоты солнца над горизонтом, облачности и скорости ветра. Ночью, в пасмурную погоду, а также при ветре 12 м/с и более поправка равна нулю.
P - Атмосферное давление - приведенное к уровню моря атмосферное давление.
Po - Атмосферное давление - измеренное на уровне метеостанции атмосферное давление.
Tmin - Минимальная температура - минимум температуры воздуха на высоте 2 м над землей.
Tmax - Максимальная температура - максимум температуры воздуха на высоте 2 м над землей.
R - Количество осадков - Количество выпавших осадков за период времени, мм. При наведении курсора мыши на число - период времени, за который выпало указанное количество осадков.
R24 - Количество осадков - Количество выпавших осадков за 24 часа, мм.
S - Снежный покров - Высота снежного покрова, см. При наведении курсора мыши на число - состояние снежного покрова и степень покрытия местности в баллах.